Terminal Aerodrome Forecast
Issued by NWS

Home | Current Version | Previous Version | Text Only | Print | Product List | Glossary On
Versions: 1 2 3 4 5 6 7 8 9 10 11 12 13 14 15 16 17 18 19 20 21 22 23 24 25 26 27 28 29 30 31
000
FTPA31 PHFO 242300 RRA
TAFLNY
TAF
PHNY 242344Z 2500/2524 27006KT P6SM FEW025 BKN100
     FM250500 VRB04KT P6SM SCT070
     FM252100 24011KT P6SM SCT020 BKN035
      AMD NOT SKED=

USA.gov is the U.S. government's official web portal to all federal, state and local government web resources and services.